Time,TemperatureF,DewpointF,PressureIn,WindDirection,WindDirectionDegrees,WindSpeedMPH,WindSpeedGustMPH,Humidity,HourlyPrecipIn,Conditions,Clouds,dailyrainin,SolarRadiationWatts/m^2,SoftwareType,DateUTC
2013-01-09 00:00:00,61.8,60.1,30.08,WSW,248,0.0,0.0,94,0.00,,,0.00,0.00,VWS V14.00,2013-01-09 06:00:00,
2013-01-09 00:30:00,61.5,59.8,30.08,WSW,248,0.0,0.0,94,0.00,,,0.00,0.00,VWS V14.00,2013-01-09 06:30:00,
2013-01-09 01:00:00,61.2,59.2,30.09,WSW,248,0.0,0.0,93,0.00,,,0.00,0.00,VWS V14.00,2013-01-09 07:00:00,
2013-01-09 01:30:00,61.0,59.6,30.09,WSW,248,0.0,0.0,95,0.00,,,0.00,0.00,VWS V14.00,2013-01-09 07:30:00,
2013-01-09 02:00:00,61.2,60.0,30.10,WSW,248,0.0,0.0,96,0.00,,,0.00,0.00,VWS V14.00,2013-01-09 08:00:00,
2013-01-09 02:30:00,61.8,60.9,30.08,WSW,248,0.0,0.0,97,0.00,,,0.00,0.00,VWS V14.00,2013-01-09 08:30:00,
2013-01-09 03:00:00,61.8,60.9,30.07,WSW,248,0.0,0.0,97,0.00,,,0.00,0.00,VWS V14.00,2013-01-09 09:00:00,
2013-01-09 03:30:00,62.1,61.5,30.08,WSW,248,0.0,0.0,98,0.00,,,0.00,0.00,VWS V14.00,2013-01-09 09:30:00,
2013-01-09 04:00:00,62.3,61.7,30.06,WSW,248,0.0,0.0,98,0.00,,,0.00,0.00,VWS V14.00,2013-01-09 10:00:00,
2013-01-09 04:30:00,62.1,61.2,30.05,WSW,248,0.0,0.0,97,0.01,,,0.01,0.00,VWS V14.00,2013-01-09 10:30:00,
2013-01-09 05:00:00,61.3,60.2,30.05,WSW,248,0.0,0.0,96,0.01,,,0.01,0.00,VWS V14.00,2013-01-09 11:00:00,
2013-01-09 05:30:00,60.1,59.0,30.06,WSW,248,0.0,0.0,96,0.01,,,0.01,0.00,VWS V14.00,2013-01-09 11:30:00,
2013-01-09 06:00:00,59.6,58.8,30.07,WSW,248,0.0,0.0,97,0.00,,,0.01,0.00,VWS V14.00,2013-01-09 12:00:00,
2013-01-09 06:30:00,59.3,58.5,30.08,WSW,248,0.0,0.0,97,0.00,,,0.01,0.00,VWS V14.00,2013-01-09 12:30:00,
2013-01-09 07:00:00,59.8,59.2,30.09,WSW,248,0.0,0.0,98,0.00,,,0.01,8.00,VWS V14.00,2013-01-09 13:00:00,
2013-01-09 07:30:00,59.6,59.0,30.11,WSW,248,0.0,0.0,98,0.00,,,0.01,23.00,VWS V14.00,2013-01-09 13:30:00,
2013-01-09 08:00:00,60.1,59.8,30.11,WSW,248,0.0,0.0,99,0.00,,,0.01,44.00,VWS V14.00,2013-01-09 14:00:00,
2013-01-09 08:30:00,60.7,60.4,30.11,WSW,248,0.0,0.0,99,0.00,,,0.01,58.00,VWS V14.00,2013-01-09 14:30:00,
2013-01-09 09:00:00,61.2,61.2,30.12,WSW,248,0.0,0.0,100,0.00,,,0.01,64.00,VWS V14.00,2013-01-09 15:00:00,
2013-01-09 09:30:00,61.2,61.2,30.12,WSW,248,0.0,0.0,100,0.00,,,0.01,72.00,VWS V14.00,2013-01-09 15:30:00,
2013-01-09 10:00:00,61.8,61.8,30.13,WSW,248,0.0,0.0,100,0.00,,,0.01,79.00,VWS V14.00,2013-01-09 16:00:00,
2013-01-09 10:30:00,62.3,62.3,30.13,WSW,248,0.0,0.0,100,0.00,,,0.01,137.00,VWS V14.00,2013-01-09 16:30:00,
2013-01-09 11:00:00,63.1,63.1,30.13,WSW,248,0.0,0.0,100,0.00,,,0.01,190.00,VWS V14.00,2013-01-09 17:00:00,
2013-01-09 11:30:00,63.2,63.2,30.11,WSW,248,0.0,0.0,100,0.00,,,0.01,142.00,VWS V14.00,2013-01-09 17:30:00,
2013-01-09 12:00:00,62.6,62.6,30.09,WSW,248,0.0,0.0,100,0.00,,,0.01,129.00,VWS V14.00,2013-01-09 18:00:00,
2013-01-09 12:30:00,63.4,63.4,30.09,WSW,248,0.0,0.0,100,0.00,,,0.01,119.00,VWS V14.00,2013-01-09 18:30:00,
2013-01-09 13:00:00,64.2,64.2,30.08,WSW,248,0.0,0.0,100,0.00,,,0.01,123.00,VWS V14.00,2013-01-09 19:00:00,
2013-01-09 13:30:00,64.7,64.7,30.08,WSW,248,0.0,0.0,100,0.00,,,0.01,139.00,VWS V14.00,2013-01-09 19:30:00,
2013-01-09 14:00:00,64.7,64.7,30.08,WSW,248,0.0,0.0,100,0.00,,,0.01,95.00,VWS V14.00,2013-01-09 20:00:00,
2013-01-09 14:30:00,64.8,64.8,30.07,WSW,248,0.0,0.0,100,0.00,,,0.01,58.00,VWS V14.00,2013-01-09 20:30:00,
2013-01-09 15:00:00,64.7,64.7,30.08,WSW,248,0.0,0.0,100,0.00,,,0.01,44.00,VWS V14.00,2013-01-09 21:00:00,
2013-01-09 15:30:00,63.9,63.9,30.08,WSW,248,0.0,0.0,100,0.00,,,0.01,54.00,VWS V14.00,2013-01-09 21:30:00,
2013-01-09 16:00:00,64.3,64.3,30.08,WSW,248,0.0,0.0,100,0.00,,,0.01,29.00,VWS V14.00,2013-01-09 22:00:00,
2013-01-09 16:30:00,64.0,64.0,30.09,WSW,248,0.0,0.0,100,0.00,,,0.01,0.00,VWS V14.00,2013-01-09 22:30:00,
2013-01-09 17:00:00,64.3,64.3,30.09,WSW,248,0.0,0.0,100,0.00,,,0.01,1.00,VWS V14.00,2013-01-09 23:00:00,
2013-01-09 17:30:00,64.0,64.0,30.09,WSW,248,0.0,0.0,100,0.00,,,0.01,0.00,VWS V14.00,2013-01-09 23:30:00,
2013-01-09 18:00:00,64.2,64.2,30.10,WSW,248,0.0,0.0,100,0.00,,,0.01,0.00,VWS V14.00,2013-01-10 00:00:00,
2013-01-09 18:30:00,64.2,64.2,30.11,WSW,248,0.0,0.0,100,0.00,,,0.01,0.00,VWS V14.00,2013-01-10 00:30:00,
2013-01-09 19:00:00,64.0,64.0,30.12,WSW,248,0.0,0.0,100,0.00,,,0.01,0.00,VWS V14.00,2013-01-10 01:00:00,
2013-01-09 19:30:00,63.2,63.2,30.12,WSW,248,0.0,0.0,100,0.01,,,0.02,0.00,VWS V14.00,2013-01-10 01:30:00,
2013-01-09 20:00:00,62.6,62.6,30.12,WSW,248,0.0,0.0,100,0.01,,,0.02,0.00,VWS V14.00,2013-01-10 02:00:00,
2013-01-09 20:30:00,62.9,62.9,30.12,WSW,248,0.0,0.0,100,0.01,,,0.02,0.00,VWS V14.00,2013-01-10 02:30:00,
2013-01-09 21:00:00,63.5,63.5,30.14,WSW,248,0.0,0.0,100,0.00,,,0.02,0.00,VWS V14.00,2013-01-10 03:00:00,
2013-01-09 21:30:00,63.7,63.7,30.14,WSW,248,0.0,0.0,100,0.00,,,0.02,0.00,VWS V14.00,2013-01-10 03:30:00,
2013-01-09 22:00:00,62.6,62.6,30.14,WSW,248,0.0,0.0,100,0.01,,,0.03,0.00,VWS V14.00,2013-01-10 04:00:00,
2013-01-09 22:30:00,62.7,62.7,30.14,WSW,248,0.0,0.0,100,0.01,,,0.03,0.00,VWS V14.00,2013-01-10 04:30:00,
2013-01-09 23:00:00,62.7,62.7,30.14,WSW,248,0.0,0.0,100,0.01,,,0.03,0.00,VWS V14.00,2013-01-10 05:00:00,
2013-01-09 23:30:00,62.6,62.6,30.14,WSW,248,0.0,0.0,100,0.01,,,0.04,0.00,VWS V14.00,2013-01-10 05:30:00,